Location: Caltech
(34.1382°N, 118.1253°W)
Time: 08:22:59
(UTC-07:00)

Lacrosse 5 - Visible Passes

Search period start: 28 September 2016 00:00
Search period end: 08 October 2016 00:00
Orbit: 715 x 723 km, 57.0° (Epoch: 24 September)

Date Brightness Start Highest point End Pass type
(mag) Time Alt. Az. Time Alt. Az. Time Alt. Az.
28 Sep 3.3 04:45:28 25° NNW 04:45:28 25° NNW 04:48:46 10° NNE visible
29 Sep 4.1 03:54:26 19° NNE 03:54:26 19° NNE 03:55:57 10° NNE visible
29 Sep 4.1 05:34:10 10° NW 05:35:07 10° NNW 05:36:04 10° NNW visible
30 Sep 3.9 04:42:33 16° NNW 04:42:33 16° NNW 04:44:34 10° N visible
01 Oct 4.5 03:51:26 13° NNE 03:51:26 13° NNE 03:52:05 10° NNE visible
